Location: ??????
(55.7522°N, 37.6156°E)
Time: 18:29:44
(UTC+00:00)

Timation 1 Rocket - Pass Details

Date: 14 June 2025
Orbit: 895 x 909 km, 70.0° (Epoch: 13 July)

Event Time Altitude Azimuth Distance (km) Brightness Sun altitude
Rises 23:14:26 0° 323° (NW) 3,550 7.9 -7.9°
Reaches altitude 10° 23:16:57 10° 322° (NW) 2,606 7.1 -7.7°
Maximum altitude 23:22:59 82° 236° (WSW) 925 4.4 -7.4°
Drops below altitude 10° 23:28:59 10° 150° (SSE) 2,590 6.4 -7.0°
Sets 23:31:29 0° 150° (SSE) 3,527 7.1 -6.8°
